FW6924 Weather Reports


Display with metric or nautical units.
time (UTC)temp
F
wind
direction
speed
MPH
gust
MPH
rain 1hr
in
rain 24hr
in
rain mn
in
humidity
%
barometer
mb
20260510131002 79 101 0.0 0.0 0.00 0.00 0.00 86 1014.6
20260510130007 78 151 0.0 3.0 0.00 0.00 0.00 86 1014.5
20260510124003 77 127 1.0 6.0 0.00 0.00 0.00 87 1014.1
20260510123002 77 134 2.0 7.0 0.00 0.00 0.00 88 1013.9
20260510122004 76 135 1.0 3.0 0.00 0.00 0.00 90 1013.8
20260510121002 76 130 1.0 3.0 0.00 0.00 0.00 90 1013.8
20260510120006 75 95 0.0 1.0 0.00 0.00 0.00 90 1013.6
20260510115008 75 115 0.0 3.0 0.00 0.00 0.00 90 1013.3
20260510114004 74 115 0.0 0.0 0.00 0.00 0.00 90 1013.1
20260510112004 74 116 0.0 0.0 0.00 0.00 0.00 89 1013.0
20260510111002 74 116 0.0 0.0 0.00 0.00 0.00 89 1012.9
20260510104004 74 116 0.0 2.0 0.00 0.00 0.00 89 1012.4
20260510103002 74 116 0.0 1.0 0.00 0.00 0.00 90 1012.2
20260510102004 73 129 1.0 2.0 0.00 0.00 0.00 89 1012.4
20260510101001 73 130 0.0 0.0 0.00 0.00 0.00 89 1012.5
20260510100006 73 130 0.0 0.0 0.00 0.00 0.00 89 1012.4
20260510094004 74 130 0.0 0.0 0.00 0.00 0.00 89 1012.4
20260510093001 74 130 0.0 0.0 0.00 0.00 0.00 89 1012.4
20260510092003 74 130 0.0 0.0 0.00 0.00 0.00 88 1012.3
20260510091001 74 130 0.0 0.0 0.00 0.00 0.00 88 1012.1
20260510084001 75 130 0.0 2.0 0.00 0.00 0.00 88 1011.9
20260510083004 75 130 0.0 0.0 0.00 0.00 0.00 88 1011.8
20260510082001 76 130 0.0 0.0 0.00 0.00 0.00 87 1011.9
20260510081003 76 130 0.0 2.0 0.00 0.00 0.00 87 1011.9
20260510080004 76 131 1.0 3.0 0.00 0.00 0.00 88 1011.9
20260510075001 76 30 0.0 1.0 0.00 0.00 0.00 88 1012.0
20260510074001 76 30 0.0 1.0 0.00 0.00 0.00 88 1012.1
20260510073001 76 30 0.0 1.0 0.00 0.00 0.00 87 1012.1
20260510072003 76 28 0.0 0.0 0.00 0.00 0.00 87 1012.0
20260510070006 76 28 0.0 0.0 0.00 0.00 0.00 86 1012.2
20260510065001 76 28 0.0 0.0 0.00 0.00 0.00 85 1012.2
20260510064003 76 28 0.0 0.0 0.00 0.00 0.00 85 1012.3
20260510063001 77 28 0.0 0.0 0.00 0.00 0.00 85 1012.5
20260510062003 77 28 0.0 0.0 0.00 0.00 0.00 85 1012.5
20260510061001 77 28 0.0 0.0 0.00 0.00 0.00 85 1012.7
20260510060006 77 28 0.0 0.0 0.00 0.00 0.00 85 1012.8
20260510055001 77 28 0.0 0.0 0.00 0.00 0.00 85 1012.9
20260510054003 77 28 0.0 0.0 0.00 0.00 0.00 84 1012.9
20260510052003 77 28 0.0 0.0 0.00 0.00 0.00 83 1013.2
20260510051001 78 28 0.0 1.0 0.00 0.00 0.00 83 1013.3
20260510045003 78 14 0.0 2.0 0.00 0.00 0.00 83 1013.2
20260510044005 79 264 0.0 1.0 0.00 0.00 0.00 84 1013.3
20260510043003 79 263 0.0 1.0 0.00 0.00 0.00 85 1013.2
20260510042005 79 263 0.0 0.0 0.00 0.00 0.00 85 1013.2
20260510041003 79 263 0.0 0.0 0.00 0.00 0.00 84 1013.2
20260510033005 80 263 0.0 0.0 0.00 0.00 0.00 84 1013.0
20260510030005 80 261 1.0 4.0 0.00 0.00 0.00 82 1013.0
20260510025003 80 276 0.0 3.0 0.00 0.00 0.00 82 1012.7
20260510023003 81 269 2.0 4.0 0.00 0.00 0.00 80 1012.7
20260510022005 81 265 1.0 4.0 0.00 0.00 0.00 80 1012.5
20260510020008 81 235 2.0 5.0 0.00 0.00 0.00 78 1012.2
20260510015003 81 252 1.0 4.0 0.00 0.00 0.00 75 1012.2
20260510013003 82 252 1.0 4.0 0.00 0.00 0.00 73 1012.0
20260510012005 82 252 1.0 4.0 0.00 0.00 0.00 71 1011.9
20260510011003 82 269 1.0 4.0 0.00 0.00 0.00 70 1011.8
20260510010007 82 267 2.0 4.0 0.00 0.00 0.00 69 1011.7
20260510005002 83 261 1.0 5.0 0.00 0.00 0.00 68 1011.5
20260510004005 83 244 3.0 5.0 0.00 0.00 0.00 67 1011.3
20260510003003 83 245 4.0 8.0 0.00 0.00 0.00 67 1011.1
20260510002005 83 252 4.0 9.0 0.00 0.00 0.00 66 1011.1
20260510001003 83 261 4.0 10.0 0.00 0.00 0.00 64 1011.2
20260510000007 84 265 5.0 9.0 0.00 0.00 0.00 64 1011.0
20260509235003 84 236 5.0 9.0 0.00 0.00 0.00 63 1010.8
20260509232005 85 258 5.0 10.0 0.00 0.00 0.00 59 1010.6
20260509231003 85 234 5.0 10.0 0.00 0.00 0.00 59 1010.6
20260509230008 85 246 5.0 9.0 0.00 0.00 0.00 61 1010.5
20260509225003 86 225 6.0 10.0 0.00 0.00 0.00 60 1010.3
20260509224005 87 225 5.0 9.0 0.00 0.00 0.00 58 1010.3
20260509223003 87 209 6.0 11.0 0.00 0.00 0.00 62 1010.2
20260509222005 87 211 7.0 11.0 0.00 0.00 0.00 61 1010.3
20260509221003 87 188 7.0 14.0 0.00 0.00 0.00 59 1010.3
20260509220008 88 267 7.0 12.0 0.00 0.00 0.00 59 1010.0
20260509215003 88 208 7.0 12.0 0.00 0.00 0.00 58 1010.1
20260509214003 88 242 7.0 12.0 0.00 0.00 0.00 58 1010.0
20260509212003 88 252 7.0 16.0 0.00 0.00 0.00 57 1009.9
20260509211005 89 242 7.0 14.0 0.00 0.00 0.00 54 1009.9
20260509210006 90 249 7.0 15.0 0.00 0.00 0.00 53 1010.1
20260509205003 91 236 7.0 16.0 0.00 0.00 0.00 50 1010.1
20260509204003 91 207 7.0 13.0 0.00 0.00 0.00 45 1010.1
20260509203002 90 257 8.0 12.0 0.00 0.00 0.00 44 1010.2
20260509202003 91 219 8.0 15.0 0.00 0.00 0.00 47 1010.3
20260509201003 91 233 8.0 13.0 0.00 0.00 0.00 47 1010.5
20260509200004 91 225 7.0 13.0 0.00 0.00 0.00 47 1010.4
20260509195002 90 260 8.0 15.0 0.00 0.00 0.00 51 1010.6
20260509194004 90 235 7.0 14.0 0.00 0.00 0.00 54 1010.7
20260509193002 89 261 8.0 11.0 0.00 0.00 0.00 57 1010.8
20260509191002 90 210 8.0 14.0 0.00 0.00 0.00 55 1010.9
20260509190007 90 252 8.0 12.0 0.00 0.00 0.00 58 1011.0
20260509185002 90 244 8.0 14.0 0.00 0.00 0.00 59 1011.0
20260509184004 90 239 7.0 13.0 0.00 0.00 0.00 58 1011.2
20260509183002 90 246 7.0 11.0 0.00 0.00 0.00 56 1011.4
20260509182004 90 230 7.0 11.0 0.00 0.00 0.00 55 1011.1
20260509181001 90 227 7.0 15.0 0.00 0.00 0.00 58 1011.3
20260509175002 90 218 9.0 16.0 0.00 0.00 0.00 57 1011.3
20260509174004 89 261 7.0 12.0 0.00 0.00 0.00 58 1011.4
20260509172004 90 231 8.0 14.0 0.00 0.00 0.00 60 1011.5
20260509170006 89 246 8.0 13.0 0.00 0.00 0.00 59 1011.6
20260509164004 89 210 6.0 13.0 0.00 0.00 0.00 56 1011.8
20260509163002 89 200 7.0 10.0 0.00 0.00 0.00 59 1012.2
20260509162004 88 232 6.0 10.0 0.00 0.00 0.00 55 1012.3
20260509161009 88 189 5.0 10.0 0.00 0.00 0.00 59 1012.4
20260509160004 87 200 5.0 13.0 0.00 0.00 0.00 59 1012.5
20260509154001 88 236 3.0 10.0 0.00 0.00 0.00 59 1012.4
20260509153001 87 227 2.0 5.0 0.00 0.00 0.00 61 1012.4
20260509152004 86 201 4.0 9.0 0.00 0.00 0.00 65 1012.5
20260509151002 86 201 4.0 9.0 0.00 0.00 0.00 66 1012.5
20260509150006 86 196 4.0 8.0 0.00 0.00 0.00 65 1012.5
20260509145001 86 195 4.0 8.0 0.00 0.00 0.00 68 1012.5
20260509144004 86 207 1.0 6.0 0.00 0.00 0.00 70 1012.4
20260509143001 85 153 2.0 5.0 0.00 0.00 0.00 72 1012.4
20260509141001 84 112 2.0 6.0 0.00 0.00 0.00 73 1012.4
20260509140006 83 84 2.0 8.0 0.00 0.00 0.00 73 1012.4
20260509135001 83 131 2.0 6.0 0.00 0.00 0.00 74 1012.4
20260509134004 82 82 1.0 4.0 0.00 0.00 0.00 77 1012.3